Regional Weather Roundup
Issued by NWS

Home | Current Version | Previous Version | Graphics & Text | Print | Product List | Glossary On
Versions: 1 2 3 4 5 6 7 8 9 10 11 12 13 14 15 16 17 18 19 20 21 22 23 24 25 26 27 28 29 30 31 32 33 34 35 36 37 38 39 40 41 42 43 44 45 46 47 48 49 50
000
ASUS43 KIND 280059
RWRIN

WEATHER ROUNDUP FOR INDIANA
NATIONAL WEATHER SERVICE INDIANAPOLIS IN
900 PM EDT THU AUG 27 2015

NOTE: "FAIR" INDICATES FEW OR NO CLOUDS BELOW 12,000 FEET WITH NO
SIGNIFICANT WEATHER AND/OR OBSTRUCTIONS TO VISIBILITY.

* - STATION DOES NOT REPORT WEATHER SUCH AS PRECIPITATION OR FOG.

+ - STATION NOT QUALITY CONTROLLED BY THE NATIONAL WEATHER SERVICE.
    USE DATA WITH CAUTION...ESPECIALLY DEWPOINT AND RELATIVE
    HUMIDITY OBSERVATIONS.

INZ001>003-010>013-019-020-280200-
NORTHWEST INDIANA

CITY           SKY/WX    TMP DP  RH WIND       PRES   REMARKS
GARY /AIRPORT/ MOCLDY    64  55  72 E5        30.13F
KNOX *+        PTCLDY    63  55  77 NE5       30.13S
MONTICELLO +   PTCLDY    65  60  84 CALM      30.12S
RENSSELAER +   MOCLDY    63  61  94 CALM      30.12S

$$

LMZ046-743>745-280200-
SOUTHERN LAKE MICHIGAN

STATION/POSITION TIME  TEMP    WIND        PRES    WAVE
                       AIR SEA DIR/SP/G            HT
                 (UTC) (F)     (DEG/KT/KT) (MB)    (FT)
BURNS HARBOR     0000   67      80/  4/  6 1020.7F
MICHIGAN CITY    0000   66      50/  6/  6   N/A
5NW MICH CITY    0000   67 71  100/  4/  6   N/A     0

$$

INZ004-005-014>016-021>024-280200-
NORTH CENTRAL INDIANA

CITY           SKY/WX    TMP DP  RH WIND       PRES   REMARKS
ELKHART        CLEAR     59  55  88 CALM      30.16F
GOSHEN         CLEAR     59  55  87 E5        30.15S
LOGANSPORT +   CLEAR     61  54  77 E3        30.14S
SOUTH BEND     CLEAR     61  55  81 NE3       30.15F
WARSAW +       CLEAR     61  55  82 E5        30.15S

$$

INZ006>009-017-018-025>027-280200-
NORTHEAST INDIANA

CITY           SKY/WX    TMP DP  RH WIND       PRES   REMARKS
ANGOLA *+      CLEAR     57  55  94 CALM      30.17R
AUBURN +       CLEAR     61  55  82 CALM      30.17S
FORT WAYNE     PTCLDY    64  56  75 CALM      30.17R

$$

INZ028-029-035-036-043>045-051>053-280200-
WEST CENTRAL INDIANA

CITY           SKY/WX    TMP DP  RH WIND       PRES   REMARKS
CRAWFORDSVL +  MOCLDY    62  60  91 CALM      30.12S
GREENCASTLE +  MOCLDY    64  57  77 CALM      30.11F
LAFAYETTE      MOCLDY    67  58  72 NE5       30.11S
TERRE HAUTE    MOCLDY    69  60  73 CALM      30.10S

$$

INZ030>032-037>040-046>048-054>057-064-065-280200-
CENTRAL INDIANA

CITY           SKY/WX    TMP DP  RH WIND       PRES   REMARKS
COLUMBUS       CLEAR     66  57  72 E6        30.13R
FRANKFORT +    PTCLDY    64  60  86 NE5       30.14F
GREENWOOD *+   PTCLDY    70  55  60 CALM      30.14
INDIANAPOLIS   MOCLDY    71  57  61 S6        30.10F
-EAGLE CREEK   MOCLDY    71  61  70 CALM      30.11S
KOKOMO *+      CLEAR     63  55  77 E6        30.14S
MT COMFORT *+  CLEAR     64  61  88 E3        30.14S
SHELBYVILLE    CLEAR     65  59  81 E3        30.12S
ZIONSVILLE +   PTCLDY    66  59  79 NE5       30.14S

$$

INZ033-034-041-042-049-050-058-059-280200-
EAST CENTRAL INDIANA

CITY           SKY/WX    TMP DP  RH WIND       PRES   REMARKS
MUNCIE         CLEAR     61  58  90 E5        30.15R

$$

INZ060-061-067>069-081>083-085>088-280200-
SOUTHWEST INDIANA

CITY           SKY/WX    TMP DP  RH WIND       PRES   REMARKS
EVANSVILLE     CLEAR     73  60  63 CALM      30.10R
HUNTINGBURG *+ PTCLDY    70  61  73 E3        30.11R

$$

INZ062-063-066-070>080-084-089>092-280200-
SOUTH CENTRAL AND SOUTHEAST INDIANA

CITY           SKY/WX    TMP DP  RH WIND       PRES   REMARKS
BLOOMINGTON    PTCLDY    64  61  90 CALM      30.12S
MADISON *+     CLEAR     63  59  88 CALM      30.16R
SEYMOUR +      CLEAR     64  59  82 CALM      30.12R

$$



USA.gov is the U.S. government's official web portal to all federal, state and local government web resources and services.